Crosby, ND

4:07 PM CST on November 21, 2019 (GMT -0600)
Crosby

Weather History for KD50 - September, 2019

Change the Weather History Date:

Wednesday, September 25, 2019

  Actual Average (WUND) Record (WUND)
Temperature  
Mean Temperature 49 °F -  
Max Temperature 57 °F - - (-1)
Min Temperature 41 °F - - (-1)
Degree Days  
Heating Degree Days 16    
Moisture  
Dew Point 40 °F    
Average Humidity 74    
Maximum Humidity 100    
Minimum Humidity 41    
Precipitation  
Precipitation 0.00 in - - ()
Sea Level Pressure  
Sea Level Pressure 29.86 in    
Wind  
Wind Speed 13 mph (WNW)    
Max Wind Speed 21 mph    
Max Gust Speed 31 mph    
Visibility 10 miles    
Events Rain    
Averages and records for this station are not official NWS values.
T = Trace of Precipitation, MM = Missing Value Source: NWS Daily Summary

Daily Weather History Graph

Daily Weather History Graph

Search for Another Location

Airport or City:

Astronomy

Sep. 25, 2019 Rise Set
Actual Time 7:43 AM CDT 7:45 PM CDT
Civil Twilight 7:12 AM CDT 8:16 PM CDT
Nautical Twilight 6:35 AM CDT 8:53 PM CDT
Astronomical Twilight 5:57 AM CDT 9:31 PM CDT
Moon 3:12 AM CDT (9/25) 6:42 PM CDT (9/25)
Length of Visible Light 13h 04m
Length of Day
12h 01m
Waning Crescent, 14% of the Moon is Illuminated
Sep 25
Waning Crescent
Sep 28
New
Oct 5
First Quarter
Oct 13
Full
Oct 21
Last Quarter

Hourly Weather History & Observations

Time (CDT) Temp. Windchill Dew Point Humidity Pressure Visibility Wind Dir Wind Speed Gust Speed Precip Events Conditions
12:15 AM 48.2 °F - 39.2 °F 71% 29.75 in 10.0 mi West 13.8 mph - N/A   Scattered Clouds
12:35 AM 48.2 °F - 39.2 °F 71% 29.76 in 10.0 mi West 12.7 mph - N/A   Partly Cloudy
12:55 AM 48.2 °F - 39.2 °F 71% 29.76 in 10.0 mi West 17.3 mph - N/A   Clear
1:15 AM 48.2 °F - 39.2 °F 71% 29.76 in 10.0 mi West 13.8 mph - N/A   Clear
1:35 AM 46.4 °F 39.8 °F 39.2 °F 76% 29.77 in 10.0 mi West 16.1 mph - N/A   Partly Cloudy
1:55 AM 46.4 °F 39.2 °F 41.0 °F 81% 29.78 in 10.0 mi West 18.4 mph 24.2 mph N/A   Clear
2:15 AM 46.4 °F 40.1 °F 41.0 °F 81% 29.78 in 10.0 mi West 15.0 mph 20.7 mph N/A   Clear
2:35 AM 46.4 °F 39.8 °F 41.0 °F 81% 29.79 in 10.0 mi West 16.1 mph - N/A   Scattered Clouds
2:55 AM 46.4 °F 40.4 °F 41.0 °F 81% 29.79 in 10.0 mi West 13.8 mph 21.9 mph N/A   Scattered Clouds
3:15 AM 46.4 °F 41.1 °F 39.2 °F 76% 29.79 in 10.0 mi West 11.5 mph - N/A   Clear
3:35 AM 44.6 °F 37.8 °F 41.0 °F 87% 29.79 in 10.0 mi West 15.0 mph - N/A   Clear
3:55 AM 44.6 °F 38.4 °F 41.0 °F 87% 29.79 in 10.0 mi West 12.7 mph 19.6 mph N/A   Clear
4:15 AM 44.6 °F 38.1 °F 41.0 °F 87% 29.80 in 10.0 mi WNW 13.8 mph - N/A   Clear
4:35 AM 44.6 °F 38.8 °F 41.0 °F 87% 29.81 in 10.0 mi West 11.5 mph 17.3 mph N/A   Clear
4:55 AM 44.6 °F 38.8 °F 41.0 °F 87% 29.81 in 10.0 mi West 11.5 mph - N/A   Partly Cloudy
5:15 AM 42.8 °F 36.6 °F 39.2 °F 87% 29.82 in 10.0 mi West 11.5 mph - N/A   Partly Cloudy
5:35 AM 42.8 °F 36.6 °F 39.2 °F 87% 29.82 in 10.0 mi West 11.5 mph - N/A   Partly Cloudy
5:55 AM 42.8 °F 36.6 °F 39.2 °F 87% 29.83 in 10.0 mi West 11.5 mph - N/A   Clear
6:15 AM 42.8 °F 36.6 °F 39.2 °F 87% 29.83 in 10.0 mi West 11.5 mph - N/A   Clear
6:35 AM 41.0 °F 34.3 °F 39.2 °F 93% 29.84 in 10.0 mi West 11.5 mph - N/A   Clear
6:55 AM 41.0 °F 34.3 °F 39.2 °F 93% 29.84 in 10.0 mi West 11.5 mph - N/A   Clear
7:15 AM 42.8 °F 37.0 °F 39.2 °F 87% 29.84 in 10.0 mi West 10.4 mph - N/A   Clear
7:35 AM 42.8 °F 36.2 °F 39.2 °F 87% 29.85 in 10.0 mi West 12.7 mph - N/A   Clear
7:55 AM 42.8 °F 36.6 °F 39.2 °F 87% 29.85 in 10.0 mi West 11.5 mph - N/A   Clear
8:15 AM 42.8 °F 35.1 °F 39.2 °F 87% 29.85 in 10.0 mi WNW 16.1 mph - N/A   Clear
8:35 AM 44.6 °F 38.1 °F 39.2 °F 81% 29.86 in 10.0 mi West 13.8 mph - N/A   Clear
8:55 AM 44.6 °F 38.1 °F 39.2 °F 81% 29.86 in 10.0 mi WNW 13.8 mph - N/A   Clear
9:15 AM 46.4 °F 40.4 °F 39.2 °F 76% 29.87 in 10.0 mi WNW 13.8 mph - N/A   Clear
9:35 AM 48.2 °F - 39.2 °F 71% 29.88 in 10.0 mi WNW 11.5 mph - N/A   Clear
9:55 AM 50.0 °F - 39.2 °F 66% 29.88 in 10.0 mi WNW 13.8 mph - N/A   Clear
10:15 AM 50.0 °F - 39.2 °F 66% 29.89 in 10.0 mi WNW 16.1 mph - N/A   Clear
10:35 AM 51.8 °F - 39.2 °F 62% 29.89 in 10.0 mi NW 15.0 mph - N/A   Clear
10:55 AM 53.6 °F - 39.2 °F 58% 29.89 in 10.0 mi WNW 16.1 mph - N/A   Partly Cloudy
11:35 AM 53.6 °F - 37.4 °F 54% 29.89 in 10.0 mi NW 15.0 mph 24.2 mph N/A   Overcast
11:55 AM 55.4 °F - 35.6 °F 47% 29.89 in 10.0 mi WNW 18.4 mph 25.3 mph N/A   Mostly Cloudy
12:15 PM 55.4 °F - 33.8 °F 44% 29.89 in 10.0 mi WNW 20.7 mph 28.8 mph N/A   Mostly Cloudy
12:35 PM 57.2 °F - 35.6 °F 44% 29.89 in 10.0 mi NW 19.6 mph 26.5 mph N/A   Overcast
12:55 PM 55.4 °F - 33.8 °F 44% 29.89 in 10.0 mi NW 16.1 mph 26.5 mph N/A   Overcast
1:15 PM 55.4 °F - 33.8 °F 44% 29.89 in 10.0 mi NW 15.0 mph 21.9 mph N/A   Overcast
1:35 PM 57.2 °F - 35.6 °F 44% 29.89 in 10.0 mi NW 11.5 mph 20.7 mph N/A   Overcast
1:55 PM 57.2 °F - 35.6 °F 44% 29.89 in 10.0 mi WNW 10.4 mph 18.4 mph N/A   Overcast
2:15 PM 57.2 °F - 33.8 °F 41% 29.88 in 10.0 mi NW 13.8 mph - N/A   Overcast
2:35 PM 55.4 °F - 35.6 °F 47% 29.88 in 8.0 mi NW 17.3 mph 24.2 mph N/A   Overcast
2:55 PM 48.2 °F - 44.6 °F 87% 29.89 in 1.8 mi West 11.5 mph 31.1 mph N/A Rain Rain
3:15 PM 51.8 °F - 46.4 °F 82% 29.88 in 10.0 mi NW 10.4 mph - N/A   Scattered Clouds
3:35 PM 53.6 °F - 48.2 °F 82% 29.88 in 5.0 mi NW 12.7 mph - N/A   Haze
3:55 PM 51.8 °F - 46.4 °F 82% 29.88 in 8.0 mi NW 13.8 mph 19.6 mph N/A   Mostly Cloudy
4:15 PM 53.6 °F - 46.4 °F 77% 29.88 in 10.0 mi NW 13.8 mph - N/A   Mostly Cloudy
4:35 PM 55.4 °F - 44.6 °F 67% 29.88 in 10.0 mi NW 18.4 mph - N/A   Scattered Clouds
4:55 PM 57.2 °F - 42.8 °F 59% 29.88 in 10.0 mi NW 12.7 mph 18.4 mph N/A   Scattered Clouds
5:15 PM 57.2 °F - 44.6 °F 63% 29.87 in 10.0 mi NW 12.7 mph - N/A   Partly Cloudy
5:35 PM 57.2 °F - 42.8 °F 59% 29.88 in 10.0 mi NW 15.0 mph 20.7 mph N/A   Scattered Clouds
5:55 PM 55.4 °F - 42.8 °F 63% 29.88 in 10.0 mi NW 9.2 mph 15.0 mph N/A   Scattered Clouds
6:15 PM 57.2 °F - 41.0 °F 55% 29.88 in 10.0 mi NNW 19.6 mph 25.3 mph N/A   Scattered Clouds
6:35 PM 55.4 °F - 42.8 °F 63% 29.89 in 10.0 mi NW 13.8 mph - N/A   Scattered Clouds
6:55 PM 55.4 °F - 39.2 °F 54% 29.89 in 10.0 mi NW 13.8 mph 20.7 mph N/A   Clear
7:15 PM 53.6 °F - 39.2 °F 58% 29.90 in 10.0 mi NW 10.4 mph - N/A   Scattered Clouds
7:35 PM 51.8 °F - 41.0 °F 67% 29.90 in 10.0 mi NNW 15.0 mph 27.6 mph N/A   Overcast
7:55 PM 50.0 °F - 41.0 °F 71% 29.90 in 10.0 mi WNW 4.6 mph 12.7 mph N/A   Mostly Cloudy
8:15 PM 46.4 °F 42.9 °F 42.8 °F 87% 29.91 in 10.0 mi West 6.9 mph - N/A   Mostly Cloudy
8:35 PM 48.2 °F - 42.8 °F 82% 29.91 in 10.0 mi WNW 6.9 mph - N/A   Overcast
8:55 PM 48.2 °F - 42.8 °F 82% 29.89 in 5.0 mi Calm Calm - N/A Rain Light Rain
9:15 PM 44.6 °F 40.2 °F 42.8 °F 93% 29.90 in 10.0 mi SW 8.1 mph - N/A   Mostly Cloudy
9:35 PM 42.8 °F 39.3 °F 42.8 °F 100% 29.90 in 10.0 mi SW 5.8 mph - N/A   Clear
9:55 PM 42.8 °F 38.0 °F 42.8 °F 100% 29.90 in 10.0 mi SSW 8.1 mph - N/A   Clear
10:15 PM - - - N/A% 29.89 in 10.0 mi SSW 8.1 mph - N/A   Clear
10:35 PM 41.0 °F 35.2 °F 41.0 °F 100% 29.89 in 10.0 mi SSW 9.2 mph - N/A   Clear
10:55 PM 42.8 °F 37.5 °F 42.8 °F 100% 29.88 in 10.0 mi SSW 9.2 mph - N/A   Clear
11:15 PM - - - N/A% 29.88 in 10.0 mi SW 8.1 mph - N/A   Clear
11:35 PM 42.8 °F 37.5 °F 42.8 °F 100% 29.88 in 10.0 mi SSW 9.2 mph - N/A   Clear
11:55 PM 42.8 °F 37.0 °F 42.8 °F 100% 29.88 in 10.0 mi SW 10.4 mph - N/A   Clear